This is the latest recevied weather packets stored in our database for station/object OK4ZAW-16. If no packets are shown the sender has not sent any weather packets the latest 10 day(s).
| Time | Temp. | Humidity | Pressure | Rain* | Wind** | Luminosity | Snow |
|---|---|---|---|---|---|---|---|
| 1777803640 | 15.56° C | 72% | 1020.6 hPa | - | - | 150 W/m² | - |
| 1777803223 | 15.56° C | 73% | 1020.7 hPa | - | - | 150 W/m² | - |
| 1777802806 | 15.56° C | 75% | 1020.7 hPa | - | - | 150 W/m² | - |
| 1777802388 | 15.56° C | 76% | 1020.7 hPa | - | - | 150 W/m² | - |
| 1777801971 | 15° C | 79% | 1020.6 hPa | - | - | 150 W/m² | - |
| 1777801554 | 15° C | 77% | 1020.9 hPa | - | - | 150 W/m² | - |
| 1777801137 | 15° C | 81% | 1020.9 hPa | - | - | 150 W/m² | - |
| 1777800719 | 14.44° C | 84% | 1021 hPa | - | - | 150 W/m² | - |
| 1777800302 | 14.44° C | 83% | 1021 hPa | - | - | 150 W/m² | - |
| 1777799885 | 13.89° C | 87% | 1021.1 hPa | - | - | 150 W/m² | - |
| 1777799468 | 13.89° C | 90% | 1021 hPa | - | - | 150 W/m² | - |
| 1777799051 | 13.33° C | 89% | 1021 hPa | - | - | 150 W/m² | - |
| 1777798634 | 13.33° C | 92% | 1021.1 hPa | - | - | 150 W/m² | - |
| 1777798217 | 13.33° C | 94% | 1021.1 hPa | - | - | 150 W/m² | - |
| 1777797800 | 12.78° C | 93% | 1021 hPa | - | - | 150 W/m² | - |
| 1777797383 | 12.78° C | 92% | 1021.1 hPa | - | - | 150 W/m² | - |
| 1777796966 | 13.33° C | 87% | 1021 hPa | - | - | 150 W/m² | - |
| 1777796549 | 12.78° C | 88% | 1021.1 hPa | - | - | 150 W/m² | - |
| 1777796132 | 12.78° C | 89% | 1021 hPa | - | - | 150 W/m² | - |
| 1777795715 | 12.22° C | 90% | 1020.9 hPa | - | - | 150 W/m² | - |
| 1777795298 | 12.78° C | 87% | 1021 hPa | - | - | 150 W/m² | - |
| 1777794881 | 12.78° C | 81% | 1020.9 hPa | - | - | 150 W/m² | - |
| 1777794464 | 12.78° C | 79% | 1021 hPa | - | - | 150 W/m² | - |
| 1777794048 | 12.78° C | 80% | 1020.9 hPa | - | - | 150 W/m² | - |
| 1777793631 | 12.78° C | 74% | 1020.9 hPa | - | - | 150 W/m² | - |
* Rain since midnight (hover to see other rain measurements)
** Current wind speed in m/s (hover to see current wind gust speed)